Location: Albany
(35.0170°S, 117.8920°E)
Time: 17:31:34
(UTC+08:00)

Explorer 11/Cluster Stage 4 - Pass Details

Date: 29 January 2021
Orbit: 467 x 1257 km, 28.8° (Epoch: 02 March)

Event Time Altitude Azimuth Distance (km) Brightness Sun altitude
Rises 09:36:54 0° 275° (W) 3,693 9.7 49.7°
Reaches altitude 10° 09:39:58 10° 282° (WNW) 2,604 9.0 50.4°
Maximum altitude 09:45:42 40° 349° (N) 1,131 8.0 51.5°
Drops below altitude 10° 09:50:18 10° 58° (ENE) 2,092 9.6 52.4°
Sets 09:52:33 0° 66° (ENE) 2,893 10.1 52.8°
